Tracking 34406 objects as of 15-Jun-2026
HD Live streaming from Space Station
objects crossing your sky now

STARLINK-37766

Track STARLINK-37766 now!
10-day predictions
STARLINK-37766 is classified as:


NORAD ID: 69216
Int'l Code: 2026-115F
Perigee: 392.3 km
Apogee: 394.1 km
Inclination: 97.3 °
Period: 92.3 minutes
Semi major axis: 6764 km
RCS: Unknown
Launch date: May 26, 2026
Source: United States (US)
Launch site: AIR FORCE WESTERN TEST RANGE (AFWTR)
Your satellite tracking list
Your tracking list is empty




NASA's NSSDC Master Catalog

Two Line Element Set (TLE):
1 69216U 26115F   26166.25002315 -.02520118  00000-0 -35159-1 0  9993
2 69216  97.2843 183.5611 0001379  71.8641  12.0833 15.60556744  4386
Source of the keplerian elements: AFSPC